Other Public Products
Issued by NWS Grand Forks, ND

Home | Current Version | Previous Version | Text Only | Print | Product List | Glossary Off
Versions: 1 2 3 4 5 6 7 8 9 10 11 12 13 14 15 16 17 18 19 20 21 22 23 24 25 26 27 28 29 30 31 32 33 34 35 36 37 38 39 40 41 42 43 44 45 46 47 48 49 50

000
FPUS83 KFGF 271931
OPUFGF
PRAIRIE TO PINES WEATHER ROUNDUP
NATIONAL WEATHER SERVICE EASTERN NORTH DAKOTA/GRAND FORKS ND
100 PM CST SAT DEC 27 2014

 **SATELLITE DATA USED TO AUGMENT SKY COVER AT AUTOMATED STATIONS**
 *****  WEATHER ACROSS EASTERN NORTH DAKOTA  *****

CITY           SKY/WX    TMP DP  RH WIND       PRES   REMARKS
GRAND FORKS    CLOUDY    16  11  80 SW3       30.03F
GRAND FORKS AF CLOUDY    20  18  93 N3        30.02F
GRAND CITY NWS   N/A     18 N/A N/A MISG        N/A
BUXTON           N/A     20  16  85 SW5         N/A  WCI  14
DEVILS LAKE    CLOUDY    19  12  73 W7        29.97F WCI  10
FARGO          CLOUDY    19  12  74 SW10      30.05F WCI   7
WAHPETON ARPT  CLOUDY    21  14  73 SW8       30.08S WCI  12
$$

 *****  WEATHER ACROSS CENTRAL AND WESTERN NORTH DAKOTA  *****

CITY           SKY/WX    TMP DP  RH WIND       PRES   REMARKS
JAMESTOWN      SUNNY     21  15  78 W9        30.00F WCI  11
BISMARCK       CLOUDY    27  19  72 W9        30.01F WCI  18
MINOT          LGT SNOW  24  17  74 W17       29.94F WCI  11
MINOT AFB      MIX PCPN  23  19  86 W15       29.94S WCI  10
GARRISON         N/A     25  19  78 W15       29.95F WCI  13
WILLISTON      CLOUDY    24  15  68 W8        29.99F WCI  15
DICKINSON      PTSUNNY   25  16  68 W21       29.95F WCI  11
HETTINGER      MOSUNNY   28  16  60 W18       29.99F WCI  15
$$

 *****  OTHER OBSERVATIONS NORTHEAST NORTH DAKOTA  *****

CITY           SKY/WX    TMP DP  RH WIND       PRES   REMARKS
WALHALLA         N/A     19  16  86 NW10      30.00S WCI   8
LANGDON        CLOUDY    18  14  86 W9        29.94F WCI   6
CAVALIER       FAIR      18  14  86 S5        30.00F WCI  11
GRAFTON        NOT AVBL
CANDO          CLOUDY    19  16  86 W8        29.97F WCI   9
FORT TOTTEN      N/A     21  15  76 W6        29.95S WCI  13
ROLLA          MOCLDY    16  16 100 S5        29.94S WCI   9
RUGBY          FAIR      21  16  79 SW7       29.95F WCI  13
 ***** THE ABOVE OBSERVATIONS ARE NON NWS ARE NOT QUALITY
        CONTROLLED AND MAY MIS-REPORT RAIN FOR SNOW...
$$

 *****  OTHER OBSERVATIONS SOUTHEAST NORTH DAKOTA *****

CITY           SKY/WX    TMP DP  RH WIND       PRES   REMARKS
COOPERSTOWN    NOT AVBL
VALLEY CITY    FAIR      25  23  93 NW14      30.00F WCI  13
OAKES            N/A     23  19  86 SW8       30.05F WCI  14
GWINNER        CLEAR     21  18  86 SW15      30.06F WCI   8
SHEYENNE NWR     N/A     20  13  75 W9        29.95  WCI   9
BUFFALO        NOT AVBL
WYNDMERE         N/A     19  14  79 W10         N/A  WCI   8
 ***** THE ABOVE OBSERVATIONS ARE NON NWS ARE NOT QUALITY
       CONTROLLED AND MAY MIS-REPORT RAIN FOR SNOW...
$$

  *****  WEATHER ACROSS NORTHERN MINNESOTA  *****

CITY           SKY/WX    TMP DP  RH WIND       PRES   REMARKS
FLAG ISLAND    FLURRIES  10   5  79 SW9       29.95F WCI  -2
WARROAD        LGT SNOW  12   7  79 W10       29.97F WCI  -1
ROSEAU         CLOUDY    14   9  79 SW8       29.98F WCI   3
HALLOCK          N/A     14  10  85 SW8       30.01S WCI   3
THF RVR FALLS  CLOUDY    12  10  92 SW8       30.00F WCI   1
HALSTAD          N/A     18  12  78 SW9         N/A  WCI   7
FOSSTON        LGT SNOW  12   9  85 S12       29.99F WCI  -2
BAUDETTE       CLOUDY    12   5  73 SW7       29.96F WCI   1
WASKISH        CLOUDY    12   7  79 SW8       29.98F WCI   1
CROOKSTON      CLOUDY    14  10  85 SW8       30.04F WCI   3
$$
  *****  WEATHER ACROSS CENTRAL AND WEST MINNESOTA  *****

CITY           SKY/WX    TMP DP  RH WIND       PRES   REMARKS
BEMIDJI        CLOUDY    16   4  59 W8        29.98F WCI   5
PARK RAPIDS    CLOUDY    20   3  48 W7        29.99F WCI  11
WADENA         CLOUDY    16   7  67 W8        30.02F WCI   5
DETROIT LAKES  MOSUNNY   18  14  86 SW8       30.02F WCI   7
MOORHEAD       MIX PCPN  19  16  86 SW9       30.06F WCI   9
FERGUS FALLS   PTSUNNY   18   9  68 SW9       30.10F WCI   6
ELBOW LAKE     MOCLDY    19  11  73 SW9       30.07F WCI   8
MORRIS MN      SUNNY     19  10  68 SW8       30.08F WCI   9
STAPLES        CLOUDY    18   5  57 W7        30.03F WCI   8
WHEATON        MOSUNNY   21  14  73 SW12      30.10F WCI   9
$$
  *****  WEATHER ELSEWHERE ACROSS MINNESOTA  *****

CITY           SKY/WX    TMP DP  RH WIND       PRES   REMARKS
DULUTH         SUNNY     21   9  59 W8        29.94F WCI  11
INTRNTL FALLS  CLOUDY    15   6  67 SW5       29.94F WCI   8
ELY            SUNNY     18   7  62 W7        29.93F WCI   8
CLOQUET        SUNNY     21   9  58 W8        29.96F WCI  12
BRAINERD       SUNNY     21   7  54 W8        30.03F WCI  11
HIBBING        SUNNY     20   6  55 NW9       29.96F WCI   9
ALEXANDRIA     SUNNY     18   8  65 W8        30.06F WCI   8
SAINT CLOUD    SUNNY     24  11  57 W9        30.07S WCI  14
MINNEAPOLIS    MOSUNNY   24  15  68 NW10      30.08S WCI  14
$$

  *****  WEATHER ACROSS SOUTH DAKOTA  *****

CITY           SKY/WX    TMP DP  RH WIND       PRES   REMARKS
SIOUX FALLS    SUNNY     13   8  81 W8        30.17F WCI   2
BROOKINGS      NOT AVBL
WATERTOWN      SUNNY     13   9  84 SW15      30.09F WCI  -3
HURON          SUNNY     15   9  76 S8        30.16F WCI   4
SISSETON         N/A     23  16  74 W15       30.07F WCI  10
ABERDEEN       MOSUNNY   20  13  74 SW10      30.11F WCI   9
MITCHELL       SUNNY     18  12  77 W9        30.19F WCI   7
PIERRE         MOSUNNY   20  13  74 SW8       30.13F WCI  10
MOBRIDGE       SUNNY     20  15  81 S7        30.04F WCI  11
RAPID CITY     SUNNY     19  11  70 SE6       30.06F WCI  11
$$

  *****  SOME WEATHER IN NEARBY STATES *****

CITY           SKY/WX    TMP DP  RH WIND       PRES   REMARKS
GLASGOW MT     CLOUDY    24  17  74 SW6       29.99F WCI  17
GREAT FALLS MT PTSUNNY   28  19  69 SW22G29   29.95F WCI  14
CHEYENNE WY    SUNNY     19   4  51 SW12      30.04F WCI   7
SCOTTSBLUFF NE SUNNY     16   8  71 NW6       30.14F WCI   7
OMAHA NE       MOSUNNY   27  18  69 NW12      30.24F WCI  17
DES MOINES IA  PTSUNNY   29  21  72 NW15      30.17F WCI  18
DAVENPORT IA   CLOUDY    32  27  81 W21       30.09R WCI  20
CHICAGO IL     CLOUDY    38  31  76 W20G30    29.97S
EAU CLAIRE WI  CLOUDY    27  20  75 W12       30.00R WCI  17
LA CROSSE WI   CLOUDY    30  25  81 NW12      30.02R WCI  20
$$

  *****  SOME NATIONAL WEATHER *****

CITY           SKY/WX    TMP DP  RH WIND       PRES   REMARKS
LA GUARDIA NY  PTSUNNY   55  34  45 CALM      30.18F
RALEIGH NC     MOSUNNY   61  38  42 SW9       30.25S
ATLANTA GA     PTSUNNY   59  42  53 VRB3      30.21F
NEW ORLEANS LA LGT RAIN  69  66  90 S12       30.07F FOG
OKLAHOMA CITY  CLOUDY    33  23  66 N13       30.29S WCI  24
ALBUQUERQUE NM MOSUNNY   33  15  47 N10       30.23F WCI  25
SALT LAKE CITY MOSUNNY   27  16  63 SE10      30.35F WCI  17
LOS ANGELES CA MOSUNNY   58  19  22 NW3       30.34F
BOISE ID       CLOUDY    29  17  61 SE10      30.32F WCI  20
SEATTLE WA     CLOUDY    46  44  93 SW18G24   30.11F
$$

*** WEATHER ACROSS MANITOBA...SASKATCHEWAN AND ONTARIO ***
                ***ONTARIO***

CITY           SKY/WX    TMP DP  RH WIND       PRES   REMARKS
GERALDTON      FLURRIES  19  14  79 N5        29.87F WCI  13
THUNDER BAY    CLOUDY    21  14  73 NW9       29.93  WCI  11
SIOUX LOOKOUT  FLURRIES   3   0  85 SW8       29.93F WCI -10
TORONTO        PTSUNNY   48  39  71 S9        29.93F
BIG TROUT LK   FLURRIES  -4  -9  77 SW5       29.95F WCI -15
PICKLE LAKE    PTSUNNY    1  -4  78 VRB2      29.90F
DRYDEN         FLURRIES   5   3  92 S8        29.91F WCI  -8
KENORA         LGT SNOW   9   5  85 SW9       29.93  WCI  -5
$$
                *** MANITOBA***

CITY           SKY/WX    TMP DP  RH WIND       PRES   REMARKS
BRANDON        FLURRIES  12   7  79 N12       29.99  WCI  -2
DAUPHIN        CLOUDY     1  -2  85 N10       30.05S WCI -14
ISLAND LAKE    MOSUNNY   -8 -15  71 W5        29.96F WCI -19
PILOT MOUND      N/A     16  12  86 NW6         N/A  WCI   7
THE PAS        MOSUNNY  -17 -24  70 W10       30.12S WCI -37
THOMPSON       MOSUNNY  -17 -24  70 NW9       30.03S WCI -36
WINNIPEG       MOSUNNY    9   1  72 NW9       30.01  WCI  -5
CHURCHILL      CRYSTALS  -8 -11  84 N24       30.00  BLWGSNOWWCI -34
GILLAM         FLURRIES -18 -24  76 W10       29.97F WCI -39
$$
                ***SASKATCHEWAN***

CITY           SKY/WX    TMP DP  RH WIND       PRES   REMARKS
ESTEVAN        PTSUNNY   21  14  73 NW15      29.94F WCI   8
KINDERSLEY     CLOUDY    16  12  86 E8        29.93  WCI   5
LLOYDMINSTER   FLURRIES   9   5  85 E14       29.95  WCI  -8
PRINCE ALBERT  MOSUNNY  -13 -17  84 N5        30.13F WCI -25
REGINA         LGT SNOW  14  10  85 N8        29.99  WCI   3
YORKTON        SUNNY     -2  -8  78 N9        30.03S WCI -18



USA.gov is the U.S. government's official web portal to all federal, state and local government web resources and services.